Temp_Advection
nan nan nan nan nan nan nan nan nan nan nan nan nan nan nan nan nan nan nan nan nan nan nan nan nan nan nan nan nan nan nan nan nan nan nan nan nan nan nan nan nan nan nan nan nan
nan -0 -0 -0 -0 -0 -0 -0 -0 -0 -0 -0 -0 -1 -1 -1 -0 -0 -0 -0 -0 -0 -0 -0 -0 -0 -0 -0 -0 -1 -0 -0 -0 -0 -0 0 0 0 -0 -2 -1 -0 1 0 nan
nan -0 -0 -0 -0 -0 -0 -0 -0 -0 -0 -0 -0 -1 -1 -1 -1 -0 -0 -0 -0 -0 -0 -0 -0 -0 -0 -0 -0 -0 -0 -0 -0 -0 -0 0 0 0 0 -0 -0 -1 1 1 nan
nan -0 -0 -0 -0 -0 -0 -0 -0 -0 -0 -0 -0 -0 -1 -0 -0 -0 0 -0 -0 -0 -0 -0 -0 -0 -0 0 0 0 -0 -0 -0 -0 0 0 0 -1 -2 -0 2 -1 0 1 nan
nan -0 -0 -0 -0 -0 -0 -0 -0 -0 -0 -0 -0 -1 -1 -1 -0 -0 -0 -0 -0 -0 -0 -0 -0 -0 0 -0 -0 0 -0 -0 -0 -0 0 0 0 -1 -1 1 1 0 1 0 nan
nan -0 -0 -0 -0 -0 -0 -0 -0 -0 -0 -0 -0 -0 -0 -0 -1 -0 -0 0 -0 -0 -0 -0 -0 -0 0 -0 -0 -0 -0 -0 -0 0 0 0 0 -1 -1 1 2 1 -0 0 nan
nan -0 -0 -0 0 0 -0 -0 -0 -0 -0 -0 -0 -0 -1 -1 -0 -0 -0 0 0 -0 -0 0 -0 -0 -0 -0 -0 -0 -0 -0 0 0 -0 0 -0 -1 0 -0 0 0 0 0 nan
nan -0 -1 -0 0 0 0 -0 -0 -0 -0 -0 -0 -1 -1 -1 0 0 -0 -0 0 0 -0 -0 -0 -0 0 -0 -0 -0 -0 -0 -0 0 -0 0 0 -0 1 -1 -1 0 0 0 nan
nan -0 -0 -0 0 0 -0 -0 -0 -0 -0 -0 0 -0 -1 -0 -0 0 0 0 -0 -0 -0 -0 0 0 0 -0 -0 -0 -0 -0 -0 -0 -0 -0 -0 0 0 1 -1 0 0 0 nan
nan -0 -0 0 0 0 0 0 -0 -0 -0 1 0 -1 -1 -0 0 0 0 -0 0 0 0 0 -0 -0 -0 0 -0 -0 -0 -0 -0 -0 -0 -1 -1 0 0 0 0 0 0 0 nan
nan 0 0 -0 0 0 0 0 -0 -0 -0 -0 -0 -0 -0 -0 -0 0 0 -0 0 0 0 -0 -0 -0 -0 -0 0 0 -0 -0 0 -0 0 -1 -1 -0 0 0 -0 0 0 0 nan
nan 0 -0 0 0 0 0 -0 -0 0 -1 -1 -0 -0 -0 -0 -0 0 0 -0 0 0 0 -0 -0 -0 -0 -0 0 0 -0 -0 0 -0 0 -1 -0 -0 -0 0 -0 0 0 0 nan
nan -0 0 -0 -0 0 0 -0 0 0 -0 -1 -1 -0 -0 0 0 -1 -0 0 -0 0 0 0 -0 -0 -0 -0 0 0 -0 -0 0 -0 -0 -0 -0 -0 -0 0 0 0 0 0 nan
nan -0 -0 -0 -0 0 -0 -0 0 0 -0 -0 -0 -0 0 0 -0 -1 0 0 0 0 -0 -0 -0 -0 0 0 0 -0 -0 0 0 -0 0 -0 0 0 0 0 0 0 0 0 nan
nan -0 -0 -0 0 0 -1 0 1 0 -0 -0 -0 -0 0 0 -0 0 0 0 -0 -0 -0 -0 -0 0 0 0 -0 0 0 0 -0 -0 0 0 0 0 -0 -0 0 0 0 0 nan
nan -0 -0 0 -0 -1 -0 1 0 0 -1 -0 -0 0 0 -0 0 -0 0 0 0 -0 0 -0 -0 -0 -0 0 -0 -0 -0 -1 -0 0 -0 0 0 0 -0 -0 -0 -0 -0 -0 nan
nan -0 -0 -0 -0 -0 0 1 -0 -0 0 0 0 -0 0 0 0 0 0 1 1 0 0 -0 0 0 -0 -0 -0 -0 -0 0 0 -0 -0 0 0 0 -0 -0 -1 -1 -1 -0 nan
nan 0 0 0 -0 0 1 -0 -0 -0 -1 0 -0 -0 0 -0 -0 0 0 0 -0 -0 -0 0 -0 0 0 -0 -0 0 0 -0 0 0 0 -0 0 0 0 0 0 -0 -0 0 nan
nan 0 -0 -0 0 0 0 -0 -0 -1 -0 -0 -0 0 0 -0 0 -0 0 -0 -0 -0 -0 -0 -0 0 0 0 -0 -0 0 -0 -0 -0 -0 0 0 0 -0 0 1 1 0 0 nan
nan 0 -1 -0 0 0 0 -0 -0 -1 -0 -0 0 0 -0 0 0 0 -0 -0 -0 -0 -0 -0 0 0 0 -0 -0 0 -0 -0 -0 0 0 0 -0 0 0 -0 0 0 -0 -0 nan
nan 0 -0 0 0 0 0 -0 -0 -1 -0 0 -0 -0 0 0 0 0 -0 -0 -0 0 0 -0 0 0 0 0 0 0 0 -0 -0 0 0 0 0 0 -0 -0 -0 -0 -1 0 nan
nan 0 -0 0 0 -0 -0 -0 -0 -0 -0 -0 0 -0 -0 0 0 -0 -0 -0 0 -0 1 0 -0 0 0 -0 0 -0 0 0 0 0 0 0 -0 -0 0 0 -0 -1 -0 0 nan
nan -0 0 0 0 -0 -0 -0 0 0 -0 0 0 -0 -0 0 0 -0 0 0 0 -0 -0 -0 0 -0 0 0 -0 0 0 -0 -0 0 -0 -0 -0 -0 0 0 1 -0 1 0 nan
nan 0 0 0 0 -0 0 0 0 -0 -0 0 0 -0 0 0 0 -0 -0 -0 -0 0 0 -0 -0 -0 -0 0 -0 0 0 0 -0 -0 -0 -1 1 0 0 0 0 0 0 1 nan
nan -0 0 0 -0 -0 -0 -0 0 -0 -0 0 0 0 0 0 0 0 -0 -0 -0 -0 0 0 0 0 -0 0 -0 0 -0 0 -0 -1 0 0 1 -0 -0 -0 -0 0 1 1 nan
nan 0 0 0 0 0 -0 0 -0 -0 0 0 -0 -0 0 0 -0 -0 0 -0 -0 -0 -0 -0 0 0 -0 0 -0 0 0 -0 -0 0 0 0 -0 0 1 -0 0 1 0 0 nan
nan nan nan nan nan nan nan nan nan nan nan nan nan nan nan nan nan nan nan nan nan nan nan nan nan nan nan nan nan nan nan nan nan nan nan nan nan nan nan nan nan nan nan nan nan
Wind_Speed
7 7 7 7 8 9 10 11 13 15 16 18 18 19 21 20 18 15 7 5 6 6 5 3 3 5 2 3 2 3 4 2 4 5 2 4 2 6 10 15 11 8 13 14 14
9 9 9 9 9 10 11 11 13 14 15 16 18 19 20 21 18 3 5 7 8 7 7 6 4 4 2 2 2 4 3 7 3 2 3 1 1 2 3 12 10 22 21 18 18
11 10 10 10 10 11 12 13 13 15 17 17 18 18 18 18 14 2 4 9 9 8 7 5 5 2 2 2 3 2 4 4 3 5 3 1 0 2 6 5 7 21 22 19 18
13 11 11 11 12 12 13 14 16 17 18 20 20 20 19 13 1 3 11 8 6 5 5 4 4 2 2 2 2 1 3 2 4 3 3 3 2 6 9 7 22 25 22 21 20
16 14 13 13 13 13 14 15 17 18 20 20 20 20 19 10 7 7 4 4 5 5 5 3 5 4 2 3 4 3 0 2 4 4 5 4 3 9 15 22 24 24 21 20 20
20 18 16 16 15 15 15 15 15 17 18 20 20 19 18 8 7 6 6 4 2 1 1 2 4 3 2 1 1 4 4 8 3 5 4 7 3 9 10 23 25 22 21 19 18
23 22 20 19 17 17 16 16 16 17 17 17 18 19 18 20 8 8 9 9 4 2 0 2 3 3 2 3 5 5 5 5 6 7 6 11 1 5 23 24 26 23 21 19 19
26 26 24 21 21 19 19 16 16 17 17 17 16 18 12 15 13 13 13 12 7 4 2 1 2 2 1 3 4 3 3 3 3 0 2 9 3 9 22 27 24 23 21 19 18
22 24 24 23 23 19 18 20 17 17 16 16 17 9 12 6 10 4 6 14 8 6 2 2 1 1 2 5 4 5 3 2 6 2 2 1 5 7 18 24 24 22 20 19 18
26 26 23 23 20 19 19 21 19 18 20 19 17 7 8 3 3 5 2 6 5 4 3 1 2 3 3 3 4 3 2 3 3 4 2 5 4 5 8 16 22 19 18 17 16
25 24 24 22 20 18 18 15 13 8 11 11 4 11 6 10 7 3 3 6 8 3 4 2 3 6 9 5 3 2 1 2 2 3 2 5 7 4 10 19 20 18 16 14 13
23 22 23 20 20 18 19 10 9 6 11 18 22 29 30 12 8 12 9 7 7 5 3 4 6 9 5 5 3 0 2 3 3 5 1 4 3 4 5 6 14 16 13 11 10
18 20 22 23 18 20 20 18 17 15 7 13 25 25 26 23 20 25 18 10 4 6 7 6 5 7 6 4 4 3 5 4 3 4 4 2 1 6 2 10 12 11 11 10 7
15 13 18 16 19 22 22 20 14 7 4 5 6 9 14 13 9 31 28 14 4 10 7 6 6 7 4 4 7 4 5 4 4 3 3 2 5 3 7 7 9 13 13 12 8
18 16 15 19 9 17 23 21 18 6 5 3 5 2 9 16 3 8 29 18 9 7 7 8 5 4 4 7 9 6 5 5 3 3 2 2 2 2 7 6 8 15 16 13 8
21 19 15 18 20 15 14 15 17 4 11 4 7 6 5 8 1 4 10 9 9 5 2 6 2 6 6 2 5 8 6 6 4 2 3 8 8 4 6 6 8 14 17 14 10
21 22 23 22 22 21 19 24 6 10 1 4 5 6 4 5 4 4 9 13 9 5 8 2 3 3 5 6 5 4 7 1 2 1 7 2 3 6 6 6 15 21 23 15 10
22 20 23 25 21 17 22 7 10 7 14 3 2 2 6 6 4 5 7 8 7 4 3 9 5 10 6 8 7 6 6 5 6 4 3 0 6 5 2 4 14 23 19 15 12
23 24 26 28 26 24 17 15 13 9 2 4 4 3 4 5 6 5 6 5 10 9 8 6 6 0 1 3 9 5 5 1 6 3 2 4 5 1 4 4 13 18 18 15 12
26 25 31 28 22 29 12 15 12 15 6 2 11 8 7 6 7 9 8 6 7 17 4 6 2 1 3 5 5 5 8 3 2 4 5 5 5 5 8 10 9 12 19 16 12
24 11 16 23 21 18 8 10 8 25 14 6 5 7 13 7 7 6 6 3 8 9 16 6 4 1 3 4 7 3 4 3 4 4 4 2 5 5 12 15 16 18 24 19 14
23 4 7 17 15 5 5 9 11 5 22 9 2 4 10 6 6 9 11 7 14 12 12 6 4 4 7 2 3 3 6 7 5 5 2 3 7 1 6 16 22 23 27 20 15
8 13 8 26 9 11 6 11 17 14 10 12 10 7 2 3 4 5 6 2 6 9 11 8 5 2 2 3 1 5 5 4 5 3 7 5 7 2 2 13 24 26 26 20 16
10 4 9 16 11 5 18 10 11 14 10 18 4 9 5 4 4 5 4 3 1 9 8 15 5 11 15 6 5 6 7 7 6 3 5 10 9 4 6 9 14 23 24 20 15
8 5 9 6 8 14 6 7 17 15 16 17 5 11 5 6 4 5 5 2 1 3 2 6 6 5 1 2 5 4 7 11 10 15 8 13 12 7 13 15 23 26 23 19 14
6 5 3 2 4 15 10 15 13 13 8 12 11 8 12 11 8 4 2 6 5 5 4 3 4 4 3 2 1 4 4 11 10 2 6 5 12 6 14 16 19 26 25 19 15
13 12 7 10 4 7 14 17 23 12 7 17 7 5 9 14 20 21 18 17 11 2 1 4 7 6 6 3 3 7 9 9 5 4 6 8 12 5 4 16 24 27 24 20 14
Wind_Direction
269 279 291 303 313 320 327 331 333 336 339 340 339 337 332 330 335 338 8 15 356 0 25 40 42 12 33 87 67 94 68 164 189 160 239 335 43 40 77 84 69 81 110 123 120
268 275 287 297 306 310 316 322 325 328 332 335 336 335 334 332 336 31 46 39 29 27 20 14 348 4 70 65 69 84 103 210 217 196 191 180 103 128 120 95 83 99 117 129 121
271 277 283 289 297 303 309 316 320 324 328 332 334 335 337 338 331 68 6 341 325 333 338 357 5 34 80 41 17 91 166 198 240 259 218 242 233 140 131 88 160 138 125 122 111
265 269 277 285 294 301 309 314 318 323 328 330 332 331 335 344 352 282 301 309 306 319 320 348 348 28 62 100 67 82 230 277 312 265 204 194 187 71 58 83 136 127 122 117 106
259 265 271 279 288 297 306 310 315 321 325 326 328 331 335 320 288 284 278 287 296 305 306 341 32 22 21 347 331 154 240 307 303 271 221 181 191 120 91 122 129 125 120 104 98
261 265 267 274 282 291 298 302 306 312 318 317 319 323 325 302 276 259 256 256 295 332 10 41 62 9 348 356 358 311 289 289 272 233 239 180 173 100 129 139 127 125 109 102 99
257 259 264 269 275 284 289 292 294 299 302 305 311 317 314 288 267 272 256 234 235 258 327 62 4 38 23 352 340 310 320 312 208 217 232 178 120 71 143 145 123 114 109 104 94
253 260 260 263 270 275 283 282 289 288 292 299 302 308 285 297 284 282 249 225 232 223 223 50 333 333 133 320 359 19 43 349 315 163 263 172 173 153 148 144 122 122 117 108 95
249 248 253 257 264 267 271 276 274 272 285 287 298 287 281 298 299 302 272 242 237 198 241 242 224 238 126 91 3 2 208 203 314 2 314 143 124 171 163 149 132 126 118 111 103
247 247 250 254 253 255 261 273 270 272 285 287 266 280 242 219 295 278 297 194 186 183 205 189 111 78 44 99 220 197 226 240 231 309 131 95 75 92 145 130 130 128 126 122 112
252 249 244 250 250 249 255 270 275 279 256 228 263 261 250 266 252 242 220 185 203 202 165 93 93 218 216 179 111 57 304 263 279 350 234 100 128 138 134 137 139 140 135 126 109
253 249 240 236 243 240 244 227 235 286 298 261 257 262 255 237 264 222 202 176 173 190 131 39 234 221 181 161 176 105 268 257 311 351 90 89 110 138 143 151 158 151 147 138 117
262 247 240 239 238 237 242 239 253 277 271 271 260 252 255 235 237 237 205 199 162 164 184 173 210 110 154 178 175 205 181 202 208 8 13 30 170 171 120 140 155 161 158 154 137
261 264 236 231 238 240 234 245 242 274 282 253 236 246 206 201 239 231 208 184 186 195 165 234 228 224 142 208 148 196 200 152 147 99 231 351 275 204 167 162 167 167 172 167 158
248 252 248 234 237 215 234 230 214 173 283 203 188 249 175 169 165 195 195 185 170 169 135 236 191 183 177 197 161 201 129 130 104 101 73 276 296 282 132 198 189 184 180 178 169
247 242 237 238 240 245 222 217 170 110 238 275 157 155 138 228 225 98 174 188 186 145 230 231 244 153 196 77 153 139 81 52 55 75 293 202 178 212 195 200 165 188 190 186 182
239 238 239 235 235 228 234 169 206 201 41 239 192 160 182 180 228 145 173 181 173 165 209 222 233 187 145 86 23 96 105 260 331 170 232 300 190 268 193 193 175 182 189 187 186
238 234 237 233 236 216 212 207 239 181 215 68 75 91 179 162 229 180 138 191 237 134 129 186 266 167 188 173 170 191 160 164 204 199 249 84 230 267 221 181 177 180 176 179 188
234 237 236 231 222 221 197 218 218 232 186 242 8 230 230 215 176 145 208 227 206 174 188 175 255 161 116 135 148 190 205 175 100 44 45 226 286 230 139 126 155 167 181 188 198
220 224 237 233 222 206 203 232 230 234 258 338 216 203 217 199 177 183 183 205 206 191 168 201 209 249 160 109 45 162 153 92 31 172 232 265 269 230 203 190 179 188 197 197 202
216 214 240 242 231 222 215 216 203 244 242 226 251 237 232 193 199 200 220 264 205 187 182 144 142 188 106 214 169 146 161 72 126 157 197 250 252 219 201 184 188 196 202 201 206
210 191 216 191 192 242 191 201 203 247 235 255 200 260 244 193 213 205 214 224 208 150 188 178 141 164 199 272 191 157 179 158 150 204 222 157 269 345 192 187 187 194 203 201 205
212 199 198 197 210 217 249 230 226 236 229 224 228 222 355 229 231 222 212 210 179 160 170 178 172 156 331 346 31 209 187 129 117 97 191 146 260 25 167 169 192 192 199 192 197
192 177 207 220 222 205 218 218 214 234 253 207 240 250 258 237 268 290 267 345 244 200 205 153 150 206 224 210 149 190 190 175 149 131 187 230 263 201 203 190 187 190 190 188 193
224 208 187 181 223 213 224 213 214 223 213 216 215 207 221 227 209 217 273 272 17 5 81 118 194 192 324 230 170 211 182 176 192 218 190 252 220 206 204 198 193 188 181 181 187
205 178 142 155 172 206 212 221 206 218 203 217 231 221 197 213 203 215 99 11 348 8 43 358 194 53 237 214 320 265 190 193 214 178 242 260 259 205 220 180 170 182 182 181 184
220 223 167 201 169 180 218 230 221 216 240 238 222 227 240 230 217 233 229 206 195 212 1 175 144 172 229 113 220 279 206 196 196 195 181 215 243 151 157 181 176 174 180 180 178
Height
1537 1537 1538 1537 1538 1537 1536 1535 1533 1532 1531 1529 1527 1525 1522 1518 1518 1515 1513 1513 1512 1510 1510 1510 1510 1510 1510 1510 1511 1512 1526 1534 1525 1526 1520 1517 1515 1515 1519 1517 1518 1522 1525 1532 1534
1535 1535 1536 1537 1536 1536 1536 1534 1533 1532 1530 1529 1526 1524 1521 1518 1516 1514 1515 1513 1513 1511 1511 1510 1510 1510 1511 1512 1512 1514 1528 1525 1518 1516 1516 1515 1516 1516 1518 1522 1528 1527 1529 1532 1534
1534 1534 1535 1535 1535 1535 1535 1534 1532 1531 1530 1527 1525 1523 1521 1518 1514 1514 1514 1514 1513 1512 1511 1511 1512 1511 1511 1512 1514 1516 1522 1517 1515 1515 1515 1515 1515 1517 1518 1523 1525 1528 1531 1533 1533
1532 1532 1532 1533 1533 1533 1533 1532 1531 1529 1528 1526 1524 1521 1519 1517 1520 1514 1513 1513 1513 1512 1512 1511 1512 1513 1514 1514 1514 1517 1516 1516 1515 1514 1514 1515 1515 1517 1521 1529 1527 1530 1533 1534 1533
1528 1530 1531 1531 1531 1531 1531 1530 1530 1528 1527 1524 1522 1520 1519 1517 1513 1512 1511 1512 1512 1512 1512 1512 1512 1513 1516 1516 1516 1515 1516 1515 1514 1514 1513 1514 1516 1519 1530 1531 1531 1532 1535 1534 1534
1525 1527 1528 1529 1528 1529 1528 1528 1527 1526 1525 1523 1520 1519 1518 1517 1510 1510 1510 1510 1511 1510 1512 1513 1512 1513 1515 1516 1517 1516 1515 1514 1513 1513 1513 1514 1516 1515 1536 1533 1531 1533 1534 1536 1536
1521 1522 1524 1526 1526 1526 1526 1526 1525 1524 1523 1521 1519 1517 1515 1512 1509 1508 1508 1509 1510 1510 1511 1513 1513 1513 1515 1515 1516 1515 1515 1510 1510 1509 1511 1512 1518 1527 1532 1533 1531 1534 1536 1537 1537
1516 1518 1520 1521 1522 1523 1524 1522 1522 1522 1521 1519 1516 1515 1510 1507 1506 1505 1506 1507 1508 1509 1511 1512 1514 1514 1513 1515 1516 1516 1518 1522 1509 1509 1508 1509 1525 1532 1531 1529 1531 1533 1535 1537 1538
1510 1513 1515 1516 1518 1519 1520 1521 1519 1519 1518 1517 1515 1513 1507 1506 1505 1504 1504 1505 1507 1508 1510 1510 1512 1514 1514 1518 1525 1523 1526 1522 1517 1510 1510 1512 1530 1532 1533 1529 1531 1534 1535 1537 1538
1504 1507 1510 1512 1514 1515 1516 1518 1517 1516 1516 1514 1512 1516 1505 1504 1504 1504 1503 1504 1506 1507 1510 1510 1512 1515 1518 1522 1532 1525 1524 1519 1516 1512 1508 1516 1533 1535 1536 1535 1533 1535 1535 1535 1536
1500 1501 1505 1509 1509 1511 1514 1515 1519 1515 1511 1508 1507 1502 1502 1502 1502 1503 1503 1502 1505 1507 1510 1509 1516 1521 1515 1516 1516 1518 1518 1518 1513 1512 1510 1516 1533 1535 1535 1535 1534 1535 1535 1536 1536
1496 1498 1502 1503 1506 1507 1510 1511 1513 1514 1509 1503 1501 1498 1497 1500 1499 1498 1501 1503 1504 1508 1508 1513 1516 1509 1510 1513 1514 1518 1521 1521 1517 1514 1509 1515 1533 1535 1537 1538 1538 1537 1538 1538 1538
1492 1495 1497 1499 1501 1502 1505 1510 1511 1512 1510 1495 1493 1488 1487 1492 1492 1489 1496 1499 1501 1506 1508 1513 1506 1503 1508 1510 1514 1516 1518 1518 1519 1519 1518 1515 1525 1530 1534 1535 1538 1538 1538 1539 1539
1491 1491 1494 1496 1500 1499 1500 1508 1510 1514 1510 1490 1485 1476 1478 1484 1484 1480 1487 1493 1498 1503 1507 1507 1500 1501 1505 1508 1512 1518 1510 1513 1519 1525 1534 1525 1535 1527 1529 1532 1534 1536 1536 1537 1538
1486 1490 1491 1494 1494 1497 1500 1505 1510 1513 1518 1477 1477 1476 1475 1480 1478 1477 1481 1487 1492 1497 1503 1501 1498 1501 1503 1501 1502 1509 1509 1514 1518 1528 1530 1529 1535 1521 1530 1532 1530 1530 1532 1534 1534
1483 1485 1489 1489 1492 1496 1498 1502 1506 1511 1503 1473 1470 1473 1478 1476 1476 1477 1480 1485 1488 1494 1497 1497 1494 1494 1496 1499 1498 1504 1513 1522 1530 1532 1537 1525 1525 1520 1529 1519 1525 1529 1530 1531 1532
1478 1481 1483 1486 1488 1493 1497 1497 1502 1497 1472 1470 1470 1471 1473 1476 1476 1474 1479 1482 1488 1500 1501 1496 1496 1493 1492 1500 1502 1504 1513 1531 1534 1538 1528 1521 1524 1500 1512 1512 1512 1518 1524 1527 1530
1477 1477 1477 1480 1486 1489 1491 1496 1485 1476 1467 1465 1468 1469 1473 1471 1474 1475 1478 1484 1481 1484 1496 1498 1504 1491 1488 1490 1498 1505 1505 1522 1522 1533 1525 1521 1521 1503 1507 1509 1512 1517 1521 1525 1527
1472 1472 1473 1474 1480 1484 1484 1481 1471 1473 1464 1469 1468 1472 1473 1470 1470 1474 1478 1475 1471 1476 1485 1495 1493 1484 1483 1484 1487 1503 1509 1503 1518 1529 1531 1518 1511 1507 1509 1511 1512 1515 1519 1521 1524
1465 1467 1466 1471 1476 1476 1480 1468 1471 1466 1465 1466 1470 1468 1472 1470 1472 1473 1475 1462 1466 1466 1470 1477 1486 1484 1484 1483 1488 1489 1495 1511 1521 1524 1529 1522 1515 1503 1509 1508 1511 1514 1515 1518 1521
1462 1462 1459 1465 1472 1468 1461 1463 1466 1460 1465 1468 1463 1463 1460 1466 1466 1468 1463 1457 1457 1461 1465 1472 1478 1488 1484 1485 1488 1494 1496 1504 1506 1517 1511 1516 1504 1491 1491 1497 1503 1507 1510 1513 1516
1454 1454 1454 1458 1465 1457 1456 1458 1461 1458 1462 1464 1463 1462 1459 1459 1460 1462 1458 1455 1451 1454 1463 1464 1476 1488 1485 1480 1481 1484 1489 1493 1507 1510 1525 1530 1498 1488 1488 1491 1496 1501 1504 1509 1513
1445 1449 1450 1454 1451 1451 1452 1452 1454 1455 1455 1458 1462 1459 1456 1457 1464 1455 1452 1449 1449 1451 1457 1460 1475 1489 1484 1486 1484 1484 1485 1489 1497 1507 1507 1523 1492 1488 1488 1489 1492 1495 1501 1506 1509
1442 1443 1447 1447 1445 1448 1449 1450 1453 1453 1454 1457 1457 1459 1458 1457 1458 1458 1452 1451 1448 1448 1449 1450 1470 1467 1468 1466 1473 1479 1479 1483 1484 1507 1497 1487 1482 1491 1491 1490 1492 1494 1498 1502 1506
1432 1432 1433 1436 1442 1443 1446 1442 1445 1448 1450 1450 1452 1455 1458 1456 1462 1465 1461 1455 1450 1450 1449 1455 1467 1466 1463 1463 1466 1467 1470 1478 1477 1471 1483 1470 1481 1480 1482 1483 1484 1490 1496 1500 1503
1426 1426 1429 1433 1436 1440 1441 1444 1444 1442 1446 1445 1448 1450 1452 1455 1458 1460 1463 1461 1459 1452 1455 1458 1469 1464 1468 1467 1466 1469 1469 1473 1470 1472 1476 1476 1473 1470 1471 1479 1484 1487 1492 1497 1502
1421 1424 1427 1430 1433 1437 1436 1434 1434 1440 1441 1440 1443 1448 1449 1447 1450 1449 1448 1449 1459 1461 1463 1463 1465 1467 1460 1464 1468 1468 1466 1466 1465 1465 1465 1472 1461 1467 1472 1473 1475 1482 1489 1496 1500